EUTELSAT 16A

Last updated on Tue Jul 08 2025 00:02:45 GMT+0000 (Coordinated Universal Time)

1 37836U 11057A 25188.56671588 .00000121 00000+0 00000+0 0 9993 2 37836 0.0659 17.4782 0005672 89.8955 38.4044 1.00273104 3871
UTC large
Height (km)
Speed (km/s)
/
Latitude / Longitude
Inclination (degrees)
Orbital Period (minutes)
Azimuth
Elevation
Range (km)
Doppler Factor

Next 0 passes for location: London (51.5072 / 0.1276)

Sorry there are no passes over London.